| time (UTC) | temp F | wind direction | speed knots | gust knots | rain 1hr in | rain 24hr in | rain mn in | humidity % | barometer mb |
| 20260905140829 | 85 | 155 | 2.6 | 6.1 | 0.00 | 0.00 | 0.00 | 81 | 1014.3 |
| 20260905140329 | 85 | 299 | 2.6 | 7.0 | 0.00 | 0.00 | 0.00 | 82 | 1014.3 |
| 20260905140059 | 85 | 312 | 1.7 | 7.8 | 0.00 | 0.00 | 0.00 | 82 | 1014.4 |
| 20260905135829 | 85 | 243 | 3.5 | 7.8 | 0.00 | 0.00 | 0.00 | 83 | 1014.1 |
| 20260905135329 | 85 | 7 | 2.6 | 7.8 | 0.00 | 0.00 | 0.00 | 83 | 1014.2 |
| 20260905134831 | 85 | 271 | 2.6 | 7.8 | 0.00 | 0.00 | 0.00 | 83 | 1014.1 |
| 20260905134557 | 84 | 1 | 1.7 | 8.7 | 0.00 | 0.00 | 0.00 | 83 | 1014.2 |
| 20260905134331 | 84 | 172 | 3.5 | 7.8 | 0.00 | 0.00 | 0.00 | 83 | 1013.9 |
| 20260905134057 | 84 | 311 | 1.7 | 5.2 | 0.00 | 0.00 | 0.00 | 84 | 1013.9 |
| 20260905133329 | 84 | 302 | 1.7 | 5.2 | 0.00 | 0.00 | 0.00 | 84 | 1013.9 |
| 20260905133102 | 83 | 294 | 1.7 | 5.2 | 0.00 | 0.00 | 0.00 | 84 | 1014.0 |
| 20260905132828 | 84 | 142 | 0.9 | 5.2 | 0.00 | 0.00 | 0.00 | 85 | 1013.8 |
| 20260905132328 | 83 | 348 | 0.9 | 3.5 | 0.00 | 0.00 | 0.00 | 85 | 1013.7 |
| 20260905132058 | 83 | 15 | 1.7 | 4.3 | 0.00 | 0.00 | 0.00 | 85 | 1013.7 |
| 20260905131603 | 83 | 33 | 0.9 | 4.3 | 0.00 | 0.00 | 0.00 | 85 | 1013.8 |
| 20260905131552 | 83 | 333 | 1.7 | 4.3 | 0.00 | 0.00 | 0.00 | 85 | 1013.6 |
| 20260905131036 | 83 | 221 | 1.7 | 3.5 | 0.00 | 0.00 | 0.00 | 85 | 1013.7 |
| 20260905130310 | 83 | 209 | 0.9 | 3.5 | 0.00 | 0.00 | 0.00 | 85 | 1013.4 |
| 20260905130057 | 83 | 184 | 0.9 | 4.3 | 0.00 | 0.00 | 0.00 | 85 | 1013.7 |
| 20260905130043 | 83 | 333 | 0.9 | 4.3 | 0.00 | 0.00 | 0.00 | 86 | 1013.5 |
| 20260905125306 | 83 | 216 | 0.9 | 4.3 | 0.00 | 0.00 | 0.00 | 86 | 1013.3 |
| 20260905124808 | 82 | 2 | 0.9 | 3.5 | 0.00 | 0.00 | 0.00 | 87 | 1013.4 |
| 20260905124604 | 82 | 107 | 0.9 | 3.5 | 0.00 | 0.00 | 0.00 | 87 | 1013.6 |
| 20260905124532 | 82 | 290 | 1.7 | 3.5 | 0.00 | 0.00 | 0.00 | 88 | 1013.2 |
| 20260905123806 | 82 | 94 | 0.9 | 3.5 | 0.00 | 0.00 | 0.00 | 88 | 1013.2 |
| 20260905123304 | 82 | 48 | 0.9 | 3.5 | 0.00 | 0.00 | 0.00 | 88 | 1013.2 |
| 20260905123108 | 81 | 146 | 0.0 | 3.5 | 0.00 | 0.00 | 0.00 | 87 | 1013.3 |
| 20260905123022 | 81 | 338 | 0.9 | 3.5 | 0.00 | 0.00 | 0.00 | 88 | 1013.1 |
| 20260905122306 | 81 | 103 | 0.9 | 5.2 | 0.00 | 0.00 | 0.00 | 88 | 1013.0 |
| 20260905121801 | 82 | 343 | 0.9 | 5.2 | 0.00 | 0.00 | 0.00 | 88 | 1013.0 |
| 20260905121603 | 81 | 94 | 0.9 | 5.2 | 0.00 | 0.00 | 0.00 | 87 | 1013.0 |
| 20260905121303 | 81 | 190 | 0.9 | 2.6 | 0.00 | 0.00 | 0.00 | 88 | 1012.9 |
| 20260905120815 | 82 | 203 | 1.7 | 2.6 | 0.00 | 0.00 | 0.00 | 88 | 1012.9 |
| 20260905120302 | 81 | 228 | 0.0 | 2.6 | 0.00 | 0.00 | 0.00 | 88 | 1013.0 |
| 20260905120104 | 81 | 296 | 0.0 | 3.5 | 0.00 | 0.00 | 0.00 | 87 | 1013.2 |
| 20260905115802 | 82 | 247 | 0.9 | 3.5 | 0.00 | 0.00 | 0.00 | 88 | 1012.9 |
| 20260905115523 | 82 | 212 | 0.9 | 3.5 | 0.00 | 0.00 | 0.00 | 87 | 1012.8 |
| 20260905114802 | 82 | 16 | 0.9 | 2.6 | 0.00 | 0.00 | 0.00 | 87 | 1012.7 |
| 20260905114611 | 81 | 103 | 0.9 | 3.5 | 0.00 | 0.00 | 0.00 | 87 | 1013.0 |
| 20260905114302 | 82 | 33 | 1.7 | 2.6 | 0.00 | 0.00 | 0.00 | 87 | 1012.8 |
| 20260905114023 | 82 | 257 | 0.9 | 1.7 | 0.00 | 0.00 | 0.00 | 87 | 1012.8 |
| 20260905113302 | 82 | 80 | 0.9 | 1.7 | 0.00 | 0.00 | 0.00 | 87 | 1012.8 |
| 20260905113109 | 81 | 137 | 0.0 | 2.6 | 0.00 | 0.00 | 0.00 | 87 | 1013.0 |
| 20260905112802 | 82 | 185 | 0.0 | 2.6 | 0.00 | 0.00 | 0.00 | 87 | 1012.8 |
| 20260905112305 | 82 | 280 | 0.9 | 4.3 | 0.00 | 0.00 | 0.00 | 87 | 1012.8 |
| 20260905111802 | 82 | 25 | 1.7 | 4.3 | 0.00 | 0.00 | 0.00 | 87 | 1012.8 |
| 20260905111615 | 82 | 0 | 0.9 | 4.3 | 0.00 | 0.00 | 0.00 | 87 | 1013.0 |
| 20260905111302 | 82 | 259 | 0.9 | 4.3 | 0.00 | 0.00 | 0.00 | 87 | 1012.7 |
| 20260905110815 | 82 | 313 | 0.9 | 4.3 | 0.00 | 0.00 | 0.00 | 87 | 1012.7 |
| 20260905110302 | 82 | 205 | 0.9 | 4.3 | 0.00 | 0.00 | 0.00 | 87 | 1012.6 |
| 20260905110104 | 82 | 243 | 0.0 | 3.5 | 0.00 | 0.00 | 0.00 | 87 | 1012.8 |
| 20260905105802 | 82 | 224 | 0.9 | 4.3 | 0.00 | 0.00 | 0.00 | 87 | 1012.6 |
| 20260905105300 | 82 | 34 | 0.9 | 3.5 | 0.00 | 0.00 | 0.00 | 87 | 1012.8 |
| 20260905105032 | 82 | 96 | 0.9 | 4.3 | 0.00 | 0.00 | 0.00 | 87 | 1012.7 |
| 20260905104558 | 82 | 307 | 0.0 | 4.3 | 0.00 | 0.00 | 0.00 | 86 | 1013.0 |
| 20260905104301 | 82 | 320 | 1.7 | 4.3 | 0.00 | 0.00 | 0.00 | 87 | 1012.7 |
| 20260905103801 | 82 | 190 | 1.7 | 3.5 | 0.00 | 0.00 | 0.00 | 87 | 1012.8 |
| 20260905103301 | 82 | 118 | 0.9 | 2.6 | 0.00 | 0.00 | 0.00 | 87 | 1012.8 |
| 20260905103052 | 82 | 114 | 0.0 | 5.2 | 0.00 | 0.00 | 0.00 | 86 | 1013.1 |
| 20260905102801 | 82 | 288 | 0.9 | 5.2 | 0.00 | 0.00 | 0.00 | 87 | 1012.9 |
| 20260905102300 | 82 | 311 | 1.7 | 5.2 | 0.00 | 0.00 | 0.00 | 87 | 1012.8 |
| 20260905101801 | 83 | 139 | 0.9 | 3.5 | 0.00 | 0.00 | 0.00 | 87 | 1012.9 |
| 20260905101552 | 82 | 11 | 0.9 | 3.5 | 0.00 | 0.00 | 0.00 | 86 | 1013.1 |
| 20260905101303 | 83 | 281 | 0.9 | 3.5 | 0.00 | 0.00 | 0.00 | 87 | 1012.8 |
| 20260905100802 | 83 | 227 | 1.7 | 3.5 | 0.00 | 0.00 | 0.00 | 87 | 1012.8 |
| 20260905100302 | 83 | 342 | 0.9 | 3.5 | 0.00 | 0.00 | 0.00 | 86 | 1012.8 |
| 20260905100107 | 82 | 313 | 0.9 | 3.5 | 0.00 | 0.00 | 0.00 | 86 | 1013.1 |
| 20260905095802 | 83 | 240 | 0.9 | 3.5 | 0.00 | 0.00 | 0.00 | 86 | 1012.9 |
| 20260905095300 | 83 | 244 | 1.7 | 4.3 | 0.00 | 0.00 | 0.00 | 86 | 1012.9 |
| 20260905094801 | 83 | 154 | 1.7 | 4.3 | 0.00 | 0.00 | 0.00 | 86 | 1012.9 |
| 20260905094605 | 82 | 202 | 0.9 | 3.5 | 0.00 | 0.00 | 0.00 | 86 | 1013.1 |
| 20260905094301 | 83 | 169 | 1.7 | 4.3 | 0.00 | 0.00 | 0.00 | 86 | 1012.9 |
| 20260905093801 | 83 | 20 | 1.7 | 3.5 | 0.00 | 0.00 | 0.00 | 86 | 1012.9 |
| 20260905093301 | 83 | 23 | 1.7 | 4.3 | 0.00 | 0.00 | 0.00 | 86 | 1013.0 |
| 20260905093055 | 83 | 185 | 1.7 | 6.1 | 0.00 | 0.00 | 0.00 | 85 | 1013.1 |
| 20260905093034 | 83 | 118 | 1.7 | 5.2 | 0.00 | 0.00 | 0.00 | 86 | 1012.9 |
| 20260905092748 | 83 | 83 | 1.7 | 5.2 | 0.00 | 0.00 | 0.00 | 86 | 1012.9 |
| 20260905091801 | 83 | 228 | 1.7 | 5.2 | 0.00 | 0.00 | 0.00 | 86 | 1013.0 |
| 20260905091609 | 83 | 60 | 1.7 | 4.3 | 0.00 | 0.00 | 0.00 | 85 | 1013.2 |
| 20260905091302 | 83 | 358 | 0.9 | 5.2 | 0.00 | 0.00 | 0.00 | 85 | 1012.9 |
| 20260905090802 | 83 | 203 | 2.6 | 3.5 | 0.00 | 0.00 | 0.00 | 85 | 1013.0 |
| 20260905090301 | 83 | 253 | 0.9 | 6.1 | 0.00 | 0.00 | 0.00 | 85 | 1013.1 |
| 20260905085801 | 83 | 187 | 1.7 | 6.1 | 0.00 | 0.00 | 0.00 | 85 | 1013.1 |
| 20260905085305 | 83 | 296 | 0.9 | 3.5 | 0.00 | 0.00 | 0.00 | 85 | 1013.0 |
| 20260905084800 | 83 | 117 | 2.6 | 4.3 | 0.00 | 0.00 | 0.00 | 85 | 1013.1 |
| 20260905084611 | 83 | 106 | 1.7 | 5.2 | 0.00 | 0.00 | 0.00 | 84 | 1013.2 |
| 20260905084525 | 83 | 243 | 1.7 | 4.3 | 0.00 | 0.00 | 0.00 | 85 | 1013.0 |
| 20260905083802 | 83 | 272 | 0.9 | 4.3 | 0.00 | 0.00 | 0.00 | 85 | 1013.0 |
| 20260905083302 | 84 | 341 | 0.9 | 6.1 | 0.00 | 0.00 | 0.00 | 85 | 1013.1 |
| 20260905083101 | 83 | 286 | 0.9 | 6.1 | 0.00 | 0.00 | 0.00 | 84 | 1013.4 |
| 20260905082802 | 84 | 295 | 2.6 | 6.1 | 0.00 | 0.00 | 0.00 | 85 | 1013.2 |
| 20260905082300 | 84 | 301 | 1.7 | 5.2 | 0.00 | 0.00 | 0.00 | 84 | 1013.1 |
| 20260905081801 | 84 | 348 | 1.7 | 5.2 | 0.00 | 0.00 | 0.00 | 84 | 1013.2 |
| 20260905081616 | 83 | 314 | 0.9 | 6.1 | 0.00 | 0.00 | 0.00 | 84 | 1013.4 |
| 20260905081521 | 84 | 272 | 1.7 | 7.0 | 0.00 | 0.00 | 0.00 | 84 | 1013.2 |
| 20260905080801 | 84 | 163 | 2.6 | 7.0 | 0.00 | 0.00 | 0.00 | 84 | 1013.2 |
| 20260905080527 | 84 | 46 | 2.6 | 4.3 | 0.00 | 0.00 | 0.00 | 84 | 1013.1 |
| 20260905080057 | 83 | 333 | 0.9 | 4.3 | 0.00 | 0.00 | 0.00 | 84 | 1013.3 |
| 20260905075801 | 84 | 51 | 0.9 | 5.2 | 0.00 | 0.00 | 0.00 | 84 | 1013.2 |
| 20260905075301 | 84 | 331 | 1.7 | 6.1 | 0.00 | 0.00 | 0.00 | 84 | 1013.2 |
| 20260905074801 | 84 | 272 | 1.7 | 6.1 | 0.00 | 0.00 | 0.00 | 84 | 1013.3 |
| 20260905074603 | 84 | 206 | 1.7 | 6.1 | 0.00 | 0.00 | 0.00 | 83 | 1013.6 |
| 20260905074301 | 84 | 185 | 1.7 | 6.1 | 0.00 | 0.00 | 0.00 | 84 | 1013.3 |
| 20260905074021 | 84 | 195 | 0.9 | 5.2 | 0.00 | 0.00 | 0.00 | 84 | 1013.4 |
| 20260905073425 | 84 | 12 | 1.7 | 5.2 | 0.00 | 0.00 | 0.00 | 83 | 1013.8 |
| 20260905073302 | 84 | 224 | 1.7 | 5.2 | 0.00 | 0.00 | 0.00 | 84 | 1013.5 |
| 20260905072801 | 84 | 176 | 1.7 | 4.3 | 0.00 | 0.00 | 0.00 | 84 | 1013.4 |
| 20260905072301 | 84 | 234 | 1.7 | 4.3 | 0.00 | 0.00 | 0.00 | 84 | 1013.6 |
| 20260905071800 | 84 | 141 | 1.7 | 4.3 | 0.00 | 0.00 | 0.00 | 84 | 1013.8 |
| 20260905071719 | 84 | 269 | 1.7 | 4.3 | 0.00 | 0.00 | 0.00 | 84 | 1013.9 |
| 20260905071303 | 84 | 13 | 0.9 | 4.3 | 0.00 | 0.00 | 0.00 | 84 | 1013.7 |
| 20260905070751 | 84 | 157 | 0.0 | 7.0 | 0.00 | 0.00 | 0.00 | 84 | 1013.8 |
| 20260905070246 | 85 | 53 | 2.6 | 7.0 | 0.00 | 0.00 | 0.00 | 84 | 1013.9 |
| 20260905065745 | 85 | 263 | 1.7 | 5.2 | 0.00 | 0.00 | 0.00 | 84 | 1013.9 |
| 20260905065239 | 85 | 207 | 1.7 | 5.2 | 0.00 | 0.00 | 0.00 | 84 | 1013.7 |
| 20260905064735 | 85 | 234 | 1.7 | 5.2 | 0.00 | 0.00 | 0.00 | 84 | 1013.8 |
| 20260905064603 | 84 | 105 | 1.7 | 4.3 | 0.00 | 0.00 | 0.00 | 83 | 1014.0 |
| 20260905064234 | 85 | 184 | 0.9 | 5.2 | 0.00 | 0.00 | 0.00 | 83 | 1013.7 |
| 20260905063733 | 85 | 199 | 1.7 | 6.1 | 0.00 | 0.00 | 0.00 | 83 | 1013.7 |
| 20260905063229 | 85 | 84 | 1.7 | 6.1 | 0.00 | 0.00 | 0.00 | 83 | 1013.8 |
| 20260905063114 | 84 | 301 | 1.7 | 6.1 | 0.00 | 0.00 | 0.00 | 83 | 1013.9 |
| 20260905062734 | 85 | 155 | 1.7 | 5.2 | 0.00 | 0.00 | 0.00 | 83 | 1013.6 |
| 20260905062234 | 85 | 233 | 1.7 | 7.8 | 0.00 | 0.00 | 0.00 | 83 | 1013.6 |
| 20260905061733 | 85 | 320 | 3.5 | 7.8 | 0.00 | 0.00 | 0.00 | 83 | 1013.7 |
| 20260905061611 | 84 | 37 | 0.9 | 7.0 | 0.00 | 0.00 | 0.00 | 82 | 1013.8 |
| 20260905061451 | 85 | 92 | 3.5 | 7.0 | 0.00 | 0.00 | 0.00 | 82 | 1013.7 |
| 20260905060731 | 85 | 358 | 1.7 | 6.1 | 0.00 | 0.00 | 0.00 | 82 | 1013.8 |
| 20260905060231 | 85 | 169 | 2.6 | 6.1 | 0.00 | 0.00 | 0.00 | 82 | 1013.6 |
| 20260905060053 | 84 | 9 | 2.6 | 6.1 | 0.00 | 0.00 | 0.00 | 81 | 1013.9 |
| 20260905055730 | 85 | 357 | 1.7 | 6.1 | 0.00 | 0.00 | 0.00 | 82 | 1013.6 |
| 20260905055230 | 85 | 327 | 1.7 | 6.1 | 0.00 | 0.00 | 0.00 | 82 | 1013.5 |
| 20260905054728 | 85 | 191 | 1.7 | 6.1 | 0.00 | 0.00 | 0.00 | 82 | 1013.5 |
| 20260905054603 | 84 | 243 | 1.7 | 5.2 | 0.00 | 0.00 | 0.00 | 81 | 1013.7 |
| 20260905054230 | 85 | 184 | 1.7 | 6.1 | 0.00 | 0.00 | 0.00 | 81 | 1013.5 |
| 20260905053730 | 85 | 164 | 1.7 | 5.2 | 0.00 | 0.00 | 0.00 | 81 | 1013.6 |
| 20260905053451 | 85 | 239 | 2.6 | 7.8 | 0.00 | 0.00 | 0.00 | 81 | 1013.6 |
| 20260905053059 | 85 | 181 | 0.9 | 9.6 | 0.00 | 0.00 | 0.00 | 80 | 1013.8 |
| 20260905052712 | 85 | 330 | 2.6 | 7.8 | 0.00 | 0.00 | 0.00 | 81 | 1013.6 |
| 20260905052209 | 85 | 46 | 2.6 | 7.8 | 0.00 | 0.00 | 0.00 | 81 | 1013.7 |
| 20260905051706 | 85 | 165 | 2.6 | 8.7 | 0.00 | 0.00 | 0.00 | 81 | 1013.6 |
| 20260905051556 | 85 | 44 | 2.6 | 7.8 | 0.00 | 0.00 | 0.00 | 80 | 1013.9 |
| 20260905051203 | 85 | 106 | 2.6 | 8.7 | 0.00 | 0.00 | 0.00 | 81 | 1013.7 |
| 20260905050703 | 85 | 307 | 1.7 | 7.8 | 0.00 | 0.00 | 0.00 | 80 | 1013.7 |
| 20260905050148 | 85 | 183 | 3.5 | 8.7 | 0.00 | 0.00 | 0.00 | 80 | 1013.7 |
| 20260905050109 | 85 | 104 | 2.6 | 8.7 | 0.00 | 0.00 | 0.00 | 80 | 1013.9 |
| 20260905045642 | 85 | 73 | 1.7 | 8.7 | 0.00 | 0.00 | 0.00 | 80 | 1013.9 |
| 20260905045138 | 85 | 210 | 1.7 | 7.0 | 0.00 | 0.00 | 0.00 | 80 | 1013.8 |
| 20260905044634 | 86 | 266 | 1.7 | 6.1 | 0.00 | 0.00 | 0.00 | 80 | 1013.8 |
| 20260905044553 | 85 | 104 | 0.9 | 5.2 | 0.00 | 0.00 | 0.00 | 79 | 1013.9 |
| 20260905044357 | 86 | 30 | 2.6 | 4.3 | 0.00 | 0.00 | 0.00 | 79 | 1013.9 |
| 20260905043631 | 86 | 40 | 1.7 | 7.0 | 0.00 | 0.00 | 0.00 | 79 | 1013.9 |
| 20260905043129 | 86 | 230 | 2.6 | 7.0 | 0.00 | 0.00 | 0.00 | 79 | 1014.0 |
| 20260905043118 | 85 | 81 | 1.7 | 7.0 | 0.00 | 0.00 | 0.00 | 78 | 1014.2 |
| 20260905042630 | 86 | 108 | 2.6 | 7.8 | 0.00 | 0.00 | 0.00 | 78 | 1013.7 |
| 20260905042131 | 86 | 326 | 3.5 | 7.8 | 0.00 | 0.00 | 0.00 | 78 | 1013.7 |
| 20260905041629 | 86 | 259 | 2.6 | 7.0 | 0.00 | 0.00 | 0.00 | 78 | 1013.8 |
| 20260905041604 | 86 | 319 | 2.6 | 7.0 | 0.00 | 0.00 | 0.00 | 77 | 1014.1 |
| 20260905041356 | 86 | 301 | 3.5 | 7.0 | 0.00 | 0.00 | 0.00 | 78 | 1013.9 |
| 20260905040858 | 86 | 253 | 2.6 | 7.0 | 0.00 | 0.00 | 0.00 | 78 | 1014.0 |
| 20260905040129 | 86 | 229 | 2.6 | 6.1 | 0.00 | 0.00 | 0.00 | 77 | 1014.0 |
| 20260905040121 | 86 | 333 | 2.6 | 7.0 | 0.00 | 0.00 | 0.00 | 77 | 1014.2 |
| 20260905035629 | 86 | 68 | 1.7 | 6.1 | 0.00 | 0.00 | 0.00 | 77 | 1013.9 |
| 20260905035128 | 86 | 290 | 3.5 | 6.1 | 0.00 | 0.00 | 0.00 | 77 | 1013.8 |
| 20260905034628 | 86 | 222 | 3.5 | 6.1 | 0.00 | 0.00 | 0.00 | 77 | 1013.9 |
| 20260905034600 | 86 | 296 | 3.5 | 6.1 | 0.00 | 0.00 | 0.00 | 76 | 1014.2 |
| 20260905034352 | 86 | 20 | 2.6 | 6.1 | 0.00 | 0.00 | 0.00 | 77 | 1014.1 |
| 20260905033621 | 87 | 200 | 1.7 | 7.0 | 0.00 | 0.00 | 0.00 | 76 | 1014.0 |
| 20260905033117 | 87 | 110 | 2.6 | 7.0 | 0.00 | 0.00 | 0.00 | 76 | 1013.8 |
| 20260905033103 | 86 | 66 | 1.7 | 7.0 | 0.00 | 0.00 | 0.00 | 75 | 1014.0 |
| 20260905032838 | 87 | 231 | 3.5 | 7.8 | 0.00 | 0.00 | 0.00 | 76 | 1013.8 |
| 20260905032108 | 87 | 10 | 3.5 | 7.8 | 0.00 | 0.00 | 0.00 | 75 | 1013.9 |
| 20260905031603 | 87 | 303 | 2.6 | 5.2 | 0.00 | 0.00 | 0.00 | 75 | 1013.9 |
| 20260905031600 | 86 | 260 | 1.7 | 7.0 | 0.00 | 0.00 | 0.00 | 74 | 1014.1 |
| 20260905031103 | 87 | 125 | 1.7 | 7.0 | 0.00 | 0.00 | 0.00 | 74 | 1013.8 |
| 20260905030824 | 87 | 220 | 2.6 | 7.0 | 0.00 | 0.00 | 0.00 | 74 | 1013.7 |
| 20260905030101 | 87 | 197 | 2.6 | 7.0 | 0.00 | 0.00 | 0.00 | 73 | 1013.8 |
| 20260905025603 | 87 | 286 | 2.6 | 7.0 | 0.00 | 0.00 | 0.00 | 73 | 1013.7 |
| 20260905025102 | 87 | 346 | 2.6 | 7.8 | 0.00 | 0.00 | 0.00 | 73 | 1013.7 |
| 20260905024602 | 87 | 356 | 2.6 | 8.7 | 0.00 | 0.00 | 0.00 | 72 | 1013.8 |
| 20260905024334 | 87 | 6 | 3.5 | 7.8 | 0.00 | 0.00 | 0.00 | 72 | 1013.5 |
| 20260905023602 | 88 | 33 | 2.6 | 6.1 | 0.00 | 0.00 | 0.00 | 72 | 1013.5 |
| 20260905023101 | 87 | 231 | 1.7 | 7.0 | 0.00 | 0.00 | 0.00 | 71 | 1013.8 |
| 20260905022600 | 88 | 328 | 1.7 | 8.7 | 0.00 | 0.00 | 0.00 | 71 | 1013.5 |
| 20260905022100 | 88 | 196 | 3.5 | 8.7 | 0.00 | 0.00 | 0.00 | 71 | 1013.3 |
| 20260905021601 | 88 | 345 | 3.5 | 8.7 | 0.00 | 0.00 | 0.00 | 71 | 1013.1 |
| 20260905021552 | 88 | 56 | 3.5 | 8.7 | 0.00 | 0.00 | 0.00 | 70 | 1013.2 |
| 20260905021100 | 88 | 37 | 3.5 | 7.8 | 0.00 | 0.00 | 0.00 | 71 | 1012.9 |
| 20260905020616 | 88 | 345 | 2.6 | 7.8 | 0.00 | 0.00 | 0.00 | 71 | 1012.7 |
| 20260905020104 | 89 | 56 | 1.7 | 7.8 | 0.00 | 0.00 | 0.00 | 70 | 1012.6 |
| 20260905020058 | 88 | 177 | 2.6 | 11.3 | 0.00 | 0.00 | 0.00 | 70 | 1012.8 |
| 20260905015602 | 89 | 117 | 2.6 | 7.8 | 0.00 | 0.00 | 0.00 | 70 | 1012.5 |
| 20260905015102 | 89 | 301 | 3.5 | 9.6 | 0.00 | 0.00 | 0.00 | 69 | 1012.4 |
| 20260905014600 | 89 | 255 | 3.5 | 9.6 | 0.00 | 0.00 | 0.00 | 69 | 1012.4 |
| 20260905014557 | 89 | 271 | 3.5 | 10.4 | 0.00 | 0.00 | 0.00 | 68 | 1012.5 |
| 20260905014323 | 89 | 307 | 4.3 | 7.8 | 0.00 | 0.00 | 0.00 | 68 | 1012.6 |
| 20260905013601 | 90 | 212 | 3.5 | 7.0 | 0.00 | 0.00 | 0.00 | 67 | 1012.6 |
| 20260905013103 | 89 | 209 | 3.5 | 9.6 | 0.00 | 0.00 | 0.00 | 66 | 1012.6 |
| 20260905013101 | 90 | 276 | 3.5 | 10.4 | 0.00 | 0.00 | 0.00 | 66 | 1012.5 |
| 20260905013051 | 90 | 124 | 5.2 | 10.4 | 0.00 | 0.00 | 0.00 | 66 | 1012.2 |
| 20260905012101 | 90 | 134 | 1.7 | 7.0 | 0.00 | 0.00 | 0.00 | 66 | 1012.1 |
| 20260905011600 | 90 | 347 | 3.5 | 9.6 | 0.00 | 0.00 | 0.00 | 65 | 1012.1 |
| 20260905011557 | 90 | 76 | 3.5 | 8.7 | 0.00 | 0.00 | 0.00 | 65 | 1012.3 |
| 20260905011100 | 90 | 206 | 4.3 | 11.3 | 0.00 | 0.00 | 0.00 | 65 | 1012.0 |
| 20260905010603 | 91 | 171 | 6.1 | 11.3 | 0.00 | 0.00 | 0.00 | 65 | 1011.8 |
| 20260905010339 | 91 | 67 | 2.6 | 8.7 | 0.00 | 0.00 | 0.00 | 64 | 1011.7 |
| 20260905010108 | 90 | 273 | 2.6 | 7.8 | 0.00 | 0.00 | 0.00 | 64 | 1011.9 |
| 20260905005615 | 91 | 126 | 3.5 | 8.7 | 0.00 | 0.00 | 0.00 | 64 | 1011.6 |
| 20260905005103 | 91 | 61 | 2.6 | 7.8 | 0.00 | 0.00 | 0.00 | 63 | 1011.8 |
| 20260905004613 | 91 | 291 | 2.6 | 8.7 | 0.00 | 0.00 | 0.00 | 63 | 1012.1 |
| 20260905004602 | 92 | 205 | 3.5 | 9.6 | 0.00 | 0.00 | 0.00 | 63 | 1011.8 |
| 20260905004101 | 92 | 226 | 5.2 | 9.6 | 0.00 | 0.00 | 0.00 | 62 | 1011.8 |
| 20260905003826 | 92 | 179 | 4.3 | 9.6 | 0.00 | 0.00 | 0.00 | 62 | 1011.7 |
| 20260905003102 | 92 | 70 | 4.3 | 9.6 | 0.00 | 0.00 | 0.00 | 62 | 1011.6 |
| 20260905002602 | 93 | 181 | 3.5 | 7.8 | 0.00 | 0.00 | 0.00 | 60 | 1011.6 |
| 20260905002102 | 93 | 30 | 3.5 | 9.6 | 0.00 | 0.00 | 0.00 | 60 | 1011.6 |
| 20260905001825 | 94 | 270 | 3.5 | 9.6 | 0.00 | 0.00 | 0.00 | 59 | 1011.6 |
| 20260905001558 | 93 | 272 | 4.3 | 13.0 | 0.00 | 0.00 | 0.00 | 59 | 1011.8 |
| 20260905001336 | 94 | 287 | 4.3 | 12.2 | 0.00 | 0.00 | 0.00 | 58 | 1011.3 |
| 20260905001320 | 94 | 167 | 5.2 | 12.2 | 0.00 | 0.00 | 0.00 | 58 | 1011.7 |
| 20260905000550 | 95 | 217 | 4.3 | 7.8 | 0.00 | 0.00 | 0.00 | 58 | 1011.3 |
| 20260905000125 | 94 | 281 | 3.5 | 9.6 | 0.00 | 0.00 | 0.00 | 57 | 1011.6 |
| 20260904235827 | 95 | 41 | 3.5 | 10.4 | 0.00 | 0.00 | 0.00 | 57 | 1011.2 |
| 20260904235102 | 95 | 268 | 4.3 | 10.4 | 0.00 | 0.00 | 0.00 | 57 | 1011.1 |
| 20260904234601 | 96 | 162 | 4.3 | 10.4 | 0.00 | 0.00 | 0.00 | 55 | 1011.1 |
| 20260904234101 | 96 | 203 | 4.3 | 8.7 | 0.00 | 0.00 | 0.00 | 54 | 1011.0 |
| 20260904233602 | 96 | 49 | 5.2 | 10.4 | 0.00 | 0.00 | 0.00 | 53 | 1010.9 |
| 20260904233108 | 96 | 212 | 5.2 | 12.2 | 0.00 | 0.00 | 0.00 | 52 | 1011.2 |
| 20260904233101 | 96 | 64 | 5.2 | 13.0 | 0.00 | 0.00 | 0.00 | 52 | 1010.9 |
| 20260904232601 | 97 | 172 | 4.3 | 13.0 | 0.00 | 0.00 | 0.00 | 52 | 1010.8 |
| 20260904232101 | 98 | 193 | 4.3 | 11.3 | 0.00 | 0.00 | 0.00 | 51 | 1010.7 |
| 20260904232057 | 98 | 162 | 5.2 | 11.3 | 0.00 | 0.00 | 0.00 | 50 | 1010.8 |
| 20260904231600 | 98 | 218 | 4.3 | 10.4 | 0.00 | 0.00 | 0.00 | 49 | 1011.1 |
| 20260904231100 | 99 | 278 | 3.5 | 7.0 | 0.00 | 0.00 | 0.00 | 50 | 1010.7 |
| 20260904230827 | 98 | 337 | 3.5 | 9.6 | 0.00 | 0.00 | 0.00 | 50 | 1010.7 |
| 20260904230056 | 98 | 226 | 4.3 | 10.4 | 0.00 | 0.00 | 0.00 | 49 | 1011.1 |
| 20260904225601 | 99 | 192 | 4.3 | 8.7 | 0.00 | 0.00 | 0.00 | 49 | 1010.8 |
| 20260904225101 | 98 | 109 | 5.2 | 8.7 | 0.00 | 0.00 | 0.00 | 50 | 1010.8 |
| 20260904224604 | 99 | 354 | 3.5 | 8.7 | 0.00 | 0.00 | 0.00 | 48 | 1011.0 |
| 20260904224601 | 99 | 279 | 3.5 | 7.8 | 0.00 | 0.00 | 0.00 | 49 | 1010.8 |
| 20260904224327 | 99 | 261 | 4.3 | 10.4 | 0.00 | 0.00 | 0.00 | 49 | 1010.7 |
| 20260904223615 | 99 | 358 | 3.5 | 11.3 | 0.00 | 0.00 | 0.00 | 50 | 1010.7 |
| 20260904223338 | 98 | 323 | 4.3 | 11.3 | 0.00 | 0.00 | 0.00 | 49 | 1010.6 |
| 20260904223106 | 98 | 44 | 3.5 | 11.3 | 0.00 | 0.00 | 0.00 | 49 | 1010.9 |
| 20260904222602 | 99 | 15 | 3.5 | 10.4 | 0.00 | 0.00 | 0.00 | 49 | 1010.6 |
| 20260904222102 | 99 | 272 | 5.2 | 11.3 | 0.00 | 0.00 | 0.00 | 49 | 1010.7 |
| 20260904221602 | 100 | 227 | 4.3 | 11.3 | 0.00 | 0.00 | 0.00 | 48 | 1010.7 |
| 20260904221555 | 99 | 143 | 4.3 | 12.2 | 0.00 | 0.00 | 0.00 | 48 | 1010.9 |
| 20260904221057 | 100 | 225 | 6.1 | 12.2 | 0.00 | 0.00 | 0.00 | 47 | 1010.6 |
| 20260904220553 | 101 | 139 | 5.2 | 12.2 | 0.00 | 0.00 | 0.00 | 45 | 1010.6 |
| 20260904220116 | 101 | 75 | 1.7 | 7.0 | 0.00 | 0.00 | 0.00 | 39 | 1010.8 |
| 20260904220053 | 102 | 103 | 2.6 | 7.0 | 0.00 | 0.00 | 0.00 | 41 | 1010.5 |
| 20260904215547 | 102 | 258 | 3.5 | 10.4 | 0.00 | 0.00 | 0.00 | 39 | 1010.4 |
| 20260904215044 | 102 | 220 | 2.6 | 10.4 | 0.00 | 0.00 | 0.00 | 40 | 1010.5 |
| 20260904214809 | 102 | 63 | 1.7 | 8.7 | 0.00 | 0.00 | 0.00 | 38 | 1010.5 |
| 20260904214600 | 101 | 7 | 1.7 | 7.8 | 0.00 | 0.00 | 0.00 | 38 | 1010.8 |
| 20260904214035 | 102 | 343 | 3.5 | 9.6 | 0.00 | 0.00 | 0.00 | 38 | 1010.6 |
| 20260904213529 | 102 | 150 | 2.6 | 9.6 | 0.00 | 0.00 | 0.00 | 39 | 1010.5 |
| 20260904213055 | 102 | 343 | 1.7 | 7.8 | 0.00 | 0.00 | 0.00 | 38 | 1010.8 |
| 20260904213029 | 102 | 22 | 1.7 | 7.8 | 0.00 | 0.00 | 0.00 | 38 | 1010.5 |
| 20260904212528 | 102 | 247 | 5.2 | 7.8 | 0.00 | 0.00 | 0.00 | 37 | 1010.7 |
| 20260904212029 | 102 | 176 | 2.6 | 6.1 | 0.00 | 0.00 | 0.00 | 38 | 1010.7 |
| 20260904211608 | 102 | 243 | 2.6 | 7.0 | 0.00 | 0.00 | 0.00 | 38 | 1011.1 |
| 20260904211527 | 102 | 338 | 2.6 | 6.1 | 0.00 | 0.00 | 0.00 | 38 | 1010.7 |
| 20260904211022 | 102 | 211 | 3.5 | 7.0 | 0.00 | 0.00 | 0.00 | 38 | 1010.7 |
| 20260904210518 | 102 | 212 | 2.6 | 7.0 | 0.00 | 0.00 | 0.00 | 40 | 1010.7 |
| 20260904210104 | 101 | 228 | 1.7 | 8.7 | 0.00 | 0.00 | 0.00 | 40 | 1011.1 |
| 20260904210017 | 102 | 33 | 2.6 | 9.6 | 0.00 | 0.00 | 0.00 | 41 | 1010.9 |
| 20260904205517 | 101 | 176 | 5.2 | 9.6 | 0.00 | 0.00 | 0.00 | 42 | 1010.8 |
| 20260904205012 | 101 | 340 | 4.3 | 7.8 | 0.00 | 0.00 | 0.00 | 42 | 1011.0 |
| 20260904204555 | 100 | 108 | 5.2 | 9.6 | 0.00 | 0.00 | 0.00 | 42 | 1011.1 |
| 20260904204508 | 101 | 103 | 5.2 | 7.8 | 0.00 | 0.00 | 0.00 | 43 | 1010.9 |
| 20260904204005 | 101 | 241 | 4.3 | 7.0 | 0.00 | 0.00 | 0.00 | 44 | 1010.9 |
| 20260904203949 | 101 | 11 | 3.5 | 8.7 | 0.00 | 0.00 | 0.00 | 43 | 1010.9 |
| 20260904203055 | 101 | 176 | 5.2 | 8.7 | 0.00 | 0.00 | 0.00 | 43 | 1011.2 |
| 20260904203002 | 102 | 252 | 5.2 | 8.7 | 0.00 | 0.00 | 0.00 | 43 | 1010.9 |
| 20260904202502 | 102 | 338 | 3.5 | 7.0 | 0.00 | 0.00 | 0.00 | 44 | 1011.0 |
| 20260904202002 | 103 | 128 | 3.5 | 7.0 | 0.00 | 0.00 | 0.00 | 43 | 1011.1 |
| 20260904201551 | 102 | 188 | 1.7 | 7.0 | 0.00 | 0.00 | 0.00 | 45 | 1011.4 |
| 20260904201502 | 102 | 211 | 1.7 | 7.0 | 0.00 | 0.00 | 0.00 | 45 | 1011.0 |
| 20260904201002 | 102 | 87 | 0.9 | 8.7 | 0.00 | 0.00 | 0.00 | 44 | 1011.0 |
| 20260904200502 | 101 | 334 | 3.5 | 9.6 | 0.00 | 0.00 | 0.00 | 45 | 1011.2 |
| 20260904200003 | 101 | 22 | 6.1 | 9.6 | 0.00 | 0.00 | 0.00 | 44 | 1011.2 |
| 20260904195503 | 103 | 193 | 3.5 | 6.1 | 0.00 | 0.00 | 0.00 | 43 | 1011.1 |
| 20260904195002 | 103 | 315 | 2.6 | 7.8 | 0.00 | 0.00 | 0.00 | 44 | 1011.3 |
| 20260904194603 | 102 | 41 | 1.7 | 7.8 | 0.00 | 0.00 | 0.00 | 44 | 1011.6 |
| 20260904194502 | 103 | 352 | 2.6 | 7.8 | 0.00 | 0.00 | 0.00 | 45 | 1011.2 |
| 20260904194000 | 102 | 271 | 2.6 | 7.8 | 0.00 | 0.00 | 0.00 | 43 | 1011.4 |
| 20260904193726 | 102 | 233 | 3.5 | 7.8 | 0.00 | 0.00 | 0.00 | 44 | 1011.7 |
| 20260904193110 | 101 | 258 | 1.7 | 6.1 | 0.00 | 0.00 | 0.00 | 44 | 1011.8 |
| 20260904193001 | 102 | 266 | 1.7 | 7.0 | 0.00 | 0.00 | 0.00 | 44 | 1011.6 |
| 20260904192501 | 102 | 70 | 3.5 | 7.0 | 0.00 | 0.00 | 0.00 | 43 | 1011.6 |
| 20260904192001 | 103 | 44 | 3.5 | 7.0 | 0.00 | 0.00 | 0.00 | 43 | 1011.7 |
| 20260904191554 | 103 | 25 | 1.7 | 8.7 | 0.00 | 0.00 | 0.00 | 44 | 1011.9 |
| 20260904191500 | 103 | 191 | 2.6 | 9.6 | 0.00 | 0.00 | 0.00 | 44 | 1011.7 |
| 20260904191001 | 102 | 275 | 4.3 | 9.6 | 0.00 | 0.00 | 0.00 | 44 | 1011.8 |
| 20260904190500 | 103 | 243 | 1.7 | 6.1 | 0.00 | 0.00 | 0.00 | 44 | 1011.9 |
| 20260904190004 | 102 | 67 | 2.6 | 7.8 | 0.00 | 0.00 | 0.00 | 44 | 1012.1 |
| 20260904185502 | 102 | 136 | 3.5 | 7.8 | 0.00 | 0.00 | 0.00 | 45 | 1012.2 |
| 20260904185003 | 102 | 8 | 1.7 | 8.7 | 0.00 | 0.00 | 0.00 | 45 | 1012.1 |
| 20260904184559 | 100 | 190 | 3.5 | 8.7 | 0.00 | 0.00 | 0.00 | 44 | 1012.5 |
| 20260904184502 | 101 | 327 | 3.5 | 8.7 | 0.00 | 0.00 | 0.00 | 46 | 1012.2 |
| 20260904184226 | 101 | 333 | 3.5 | 6.1 | 0.00 | 0.00 | 0.00 | 46 | 1012.4 |
| 20260904183502 | 101 | 317 | 2.6 | 13.0 | 0.00 | 0.00 | 0.00 | 44 | 1012.5 |
| 20260904183120 | 100 | 288 | 3.5 | 13.0 | 0.00 | 0.00 | 0.00 | 45 | 1012.8 |
| 20260904183002 | 101 | 326 | 3.5 | 13.0 | 0.00 | 0.00 | 0.00 | 45 | 1012.6 |
| 20260904182503 | 101 | 285 | 1.7 | 7.8 | 0.00 | 0.00 | 0.00 | 45 | 1012.7 |
| 20260904182003 | 100 | 191 | 3.5 | 7.8 | 0.00 | 0.00 | 0.00 | 46 | 1012.7 |
| 20260904181603 | 99 | 0 | 2.6 | 10.4 | 0.00 | 0.00 | 0.00 | 49 | 1013.0 |
| 20260904181502 | 100 | 53 | 3.5 | 8.7 | 0.00 | 0.00 | 0.00 | 47 | 1012.9 |
| 20260904181001 | 100 | 235 | 3.5 | 8.7 | 0.00 | 0.00 | 0.00 | 45 | 1013.0 |
| 20260904180731 | 99 | 264 | 2.6 | 9.6 | 0.00 | 0.00 | 0.00 | 47 | 1013.0 |
| 20260904180119 | 99 | 112 | 3.5 | 9.6 | 0.00 | 0.00 | 0.00 | 46 | 1013.2 |
| 20260904180001 | 99 | 126 | 3.5 | 9.6 | 0.00 | 0.00 | 0.00 | 47 | 1013.0 |
| 20260904175502 | 99 | 34 | 1.7 | 7.0 | 0.00 | 0.00 | 0.00 | 50 | 1013.1 |
| 20260904175001 | 98 | 307 | 4.3 | 7.0 | 0.00 | 0.00 | 0.00 | 49 | 1013.3 |
| 20260904174609 | 98 | 33 | 2.6 | 8.7 | 0.00 | 0.00 | 0.00 | 49 | 1013.6 |
| 20260904174501 | 98 | 200 | 3.5 | 8.7 | 0.00 | 0.00 | 0.00 | 49 | 1013.4 |
| 20260904174000 | 98 | 221 | 4.3 | 8.7 | 0.00 | 0.00 | 0.00 | 49 | 1013.4 |
| 20260904173501 | 98 | 44 | 5.2 | 7.8 | 0.00 | 0.00 | 0.00 | 49 | 1013.4 |
| 20260904173102 | 97 | 316 | 2.6 | 9.6 | 0.00 | 0.00 | 0.00 | 50 | 1013.7 |
| 20260904173003 | 98 | 40 | 1.7 | 9.6 | 0.00 | 0.00 | 0.00 | 50 | 1013.6 |
| 20260904172738 | 97 | 302 | 4.3 | 9.6 | 0.00 | 0.00 | 0.00 | 52 | 1013.5 |
| 20260904172002 | 96 | 228 | 3.5 | 7.8 | 0.00 | 0.00 | 0.00 | 52 | 1013.6 |
| 20260904171556 | 96 | 321 | 2.6 | 7.0 | 0.00 | 0.00 | 0.00 | 52 | 1013.9 |
| 20260904171502 | 97 | 15 | 2.6 | 7.0 | 0.00 | 0.00 | 0.00 | 53 | 1013.8 |
| 20260904171001 | 96 | 345 | 2.6 | 8.7 | 0.00 | 0.00 | 0.00 | 54 | 1013.8 |
| 20260904170500 | 96 | 209 | 4.3 | 8.7 | 0.00 | 0.00 | 0.00 | 55 | 1013.9 |
| 20260904170058 | 95 | 180 | 2.6 | 8.7 | 0.00 | 0.00 | 0.00 | 55 | 1014.1 |
| 20260904170002 | 95 | 164 | 3.5 | 8.7 | 0.00 | 0.00 | 0.00 | 56 | 1013.9 |
| 20260904165501 | 95 | 295 | 4.3 | 10.4 | 0.00 | 0.00 | 0.00 | 55 | 1014.1 |
| 20260904165001 | 95 | 335 | 3.5 | 10.4 | 0.00 | 0.00 | 0.00 | 56 | 1014.0 |
| 20260904164607 | 94 | 235 | 3.5 | 9.6 | 0.00 | 0.00 | 0.00 | 56 | 1014.1 |
| 20260904164501 | 95 | 25 | 4.3 | 7.8 | 0.00 | 0.00 | 0.00 | 58 | 1014.0 |
| 20260904163959 | 95 | 124 | 3.5 | 11.3 | 0.00 | 0.00 | 0.00 | 58 | 1014.0 |
| 20260904163454 | 94 | 319 | 3.5 | 11.3 | 0.00 | 0.00 | 0.00 | 59 | 1013.9 |
| 20260904163214 | 94 | 292 | 4.3 | 9.6 | 0.00 | 0.00 | 0.00 | 59 | 1014.0 |
| 20260904163059 | 94 | 64 | 3.5 | 9.6 | 0.00 | 0.00 | 0.00 | 59 | 1014.1 |
| 20260904162445 | 94 | 230 | 2.6 | 8.7 | 0.00 | 0.00 | 0.00 | 62 | 1014.0 |
| 20260904162429 | 94 | 283 | 2.6 | 9.6 | 0.00 | 0.00 | 0.00 | 60 | 1014.0 |
| 20260904161634 | 93 | 84 | 2.6 | 9.6 | 0.00 | 0.00 | 0.00 | 61 | 1014.2 |
| 20260904161442 | 93 | 279 | 2.6 | 9.6 | 0.00 | 0.00 | 0.00 | 61 | 1013.9 |
| 20260904161204 | 93 | 226 | 2.6 | 7.8 | 0.00 | 0.00 | 0.00 | 64 | 1014.0 |
| 20260904160434 | 93 | 205 | 3.5 | 9.6 | 0.00 | 0.00 | 0.00 | 62 | 1014.0 |
| 20260904160103 | 92 | 13 | 2.6 | 8.7 | 0.00 | 0.00 | 0.00 | 63 | 1014.2 |
| 20260904155931 | 92 | 221 | 3.5 | 9.6 | 0.00 | 0.00 | 0.00 | 64 | 1013.9 |
| 20260904155426 | 92 | 301 | 3.5 | 7.8 | 0.00 | 0.00 | 0.00 | 66 | 1014.0 |
| 20260904154923 | 91 | 229 | 3.5 | 7.8 | 0.00 | 0.00 | 0.00 | 67 | 1014.1 |
| 20260904154641 | 91 | 299 | 3.5 | 8.7 | 0.00 | 0.00 | 0.00 | 66 | 1014.2 |
| 20260904154603 | 91 | 134 | 3.5 | 8.7 | 0.00 | 0.00 | 0.00 | 66 | 1014.4 |
| 20260904153913 | 91 | 62 | 4.3 | 9.6 | 0.00 | 0.00 | 0.00 | 68 | 1014.2 |
| 20260904153408 | 91 | 1 | 4.3 | 9.6 | 0.00 | 0.00 | 0.00 | 68 | 1014.1 |
| 20260904153124 | 91 | 328 | 3.5 | 8.7 | 0.00 | 0.00 | 0.00 | 70 | 1014.0 |
| 20260904153103 | 90 | 46 | 1.7 | 7.8 | 0.00 | 0.00 | 0.00 | 68 | 1014.2 |
| 20260904152401 | 90 | 221 | 2.6 | 9.6 | 0.00 | 0.00 | 0.00 | 70 | 1014.1 |
| 20260904151901 | 89 | 202 | 5.2 | 12.2 | 0.00 | 0.00 | 0.00 | 71 | 1014.0 |
| 20260904151557 | 88 | 241 | 4.3 | 12.2 | 0.00 | 0.00 | 0.00 | 72 | 1014.2 |
| 20260904151401 | 89 | 186 | 5.2 | 12.2 | 0.00 | 0.00 | 0.00 | 72 | 1014.0 |
| 20260904150915 | 89 | 276 | 3.5 | 9.6 | 0.00 | 0.00 | 0.00 | 74 | 1014.0 |
| 20260904150629 | 88 | 278 | 4.3 | 9.6 | 0.00 | 0.00 | 0.00 | 74 | 1013.9 |
| 20260904150127 | 87 | 27 | 3.5 | 9.6 | 0.00 | 0.00 | 0.00 | 76 | 1013.9 |
| 20260904150104 | 87 | 77 | 2.6 | 11.3 | 0.00 | 0.00 | 0.00 | 75 | 1014.1 |
| 20260904145358 | 87 | 311 | 2.6 | 10.4 | 0.00 | 0.00 | 0.00 | 76 | 1013.9 |
| 20260904144850 | 87 | 260 | 3.5 | 10.4 | 0.00 | 0.00 | 0.00 | 77 | 1014.0 |
| 20260904144609 | 86 | 120 | 3.5 | 10.4 | 0.00 | 0.00 | 0.00 | 76 | 1014.1 |
| 20260904144344 | 86 | 274 | 2.6 | 11.3 | 0.00 | 0.00 | 0.00 | 77 | 1014.0 |
| 20260904143840 | 86 | 156 | 3.5 | 11.3 | 0.00 | 0.00 | 0.00 | 78 | 1013.9 |
| 20260904143335 | 87 | 18 | 2.6 | 9.6 | 0.00 | 0.00 | 0.00 | 78 | 1014.0 |
| 20260904143100 | 86 | 82 | 2.6 | 7.8 | 0.00 | 0.00 | 0.00 | 78 | 1014.1 |
| 20260904142830 | 86 | 23 | 2.6 | 7.8 | 0.00 | 0.00 | 0.00 | 78 | 1014.0 |
| 20260904142551 | 86 | 316 | 2.6 | 7.0 | 0.00 | 0.00 | 0.00 | 79 | 1013.9 |
| 20260904141830 | 86 | 216 | 3.5 | 7.0 | 0.00 | 0.00 | 0.00 | 79 | 1013.8 |
| 20260904141553 | 85 | 317 | 3.5 | 7.8 | 0.00 | 0.00 | 0.00 | 80 | 1014.0 |
| 20260904141331 | 86 | 92 | 3.5 | 7.0 | 0.00 | 0.00 | 0.00 | 80 | 1013.8 |